KA2FNK Weather Reports


Display with metric or nautical units.
time (UTC)temp
F
wind
direction
speed
MPH
gust
MPH
rain 1hr
in
rain 24hr
in
rain mn
in
humidity
%
barometer
mb
20260506181416 54 18 0.0 2.0 0.00 0.03 0.01 42 1018.8
20260506180914 54 336 3.0 6.0 0.00 0.03 0.01 40 1018.8
20260506180413 54 341 2.0 6.0 0.00 0.03 0.01 40 1018.9
20260506175912 54 35 2.0 7.0 0.00 0.03 0.01 45 1018.9
20260506175411 54 358 5.0 8.0 0.00 0.03 0.01 42 1018.9
20260506174911 54 312 0.0 9.0 0.00 0.03 0.01 43 1018.9
20260506174410 54 358 1.0 10.0 0.00 0.03 0.01 41 1018.9
20260506173909 54 350 0.0 8.0 0.00 0.03 0.01 40 1018.9
20260506173408 54 305 0.0 5.0 0.00 0.03 0.01 41 1018.9
20260506172906 54 338 1.0 8.0 0.00 0.03 0.01 42 1018.9
20260506172406 55 336 0.0 5.0 0.00 0.03 0.01 42 1018.9
20260506171905 54 1 3.0 10.0 0.00 0.03 0.01 43 1018.9
20260506171403 54 312 0.0 7.0 0.00 0.03 0.01 42 1018.9
20260506170903 54 40 0.0 11.0 0.00 0.03 0.01 41 1019.0
20260506170402 54 341 4.0 8.0 0.00 0.03 0.01 38 1019.0
20260506165900 55 331 1.0 11.0 0.00 0.05 0.01 42 1018.9
20260506165359 54 313 0.0 5.0 0.00 0.05 0.01 46 1018.9
20260506164859 54 307 2.0 13.0 0.00 0.05 0.01 40 1019.0
20260506164357 54 45 7.0 10.0 0.00 0.05 0.01 42 1018.9
20260506163857 54 2 0.0 11.0 0.00 0.05 0.01 42 1018.9
20260506163356 54 354 2.0 9.0 0.00 0.05 0.01 43 1018.9
20260506162854 54 326 2.0 10.0 0.00 0.05 0.01 43 1018.9
20260506162353 54 14 9.0 10.0 0.00 0.05 0.01 45 1018.9
20260506161852 54 281 1.0 9.0 0.00 0.05 0.01 44 1018.9
20260506161352 54 25 0.0 3.0 0.00 0.05 0.01 44 1018.8
20260506160850 54 358 0.0 15.0 0.00 0.05 0.01 45 1018.8
20260506160350 54 338 0.0 6.0 0.00 0.05 0.01 45 1018.7
20260506155849 54 327 7.0 10.0 0.00 0.07 0.01 47 1018.6
20260506155347 53 52 4.0 11.0 0.00 0.07 0.01 47 1018.6
20260506154846 53 12 6.0 9.0 0.00 0.07 0.01 47 1018.4
20260506154345 53 28 10.0 10.0 0.00 0.07 0.01 47 1018.5
20260506153844 53 348 2.0 7.0 0.01 0.07 0.01 46 1018.4
20260506153343 53 15 7.0 13.0 0.01 0.07 0.01 47 1018.4
20260506152842 53 9 2.0 12.0 0.01 0.07 0.01 45 1018.3
20260506152341 53 358 2.0 8.0 0.01 0.07 0.01 45 1018.3
20260506151840 53 330 1.0 6.0 0.01 0.07 0.01 45 1018.3
20260506151339 53 1 2.0 7.0 0.01 0.07 0.01 49 1018.2
20260506150838 53 340 3.0 8.0 0.01 0.07 0.01 54 1018.4
20260506150337 53 310 0.0 8.0 0.01 0.07 0.01 53 1018.3
20260506145836 52 23 3.0 9.0 0.01 0.10 0.01 52 1018.3
20260506145335 52 331 0.0 3.0 0.01 0.10 0.01 52 1018.4
20260506144834 52 15 1.0 2.0 0.01 0.10 0.01 58 1018.4
20260506144334 52 15 5.0 6.0 0.01 0.10 0.01 58 1018.4
20260506143832 52 12 5.0 6.0 0.00 0.09 0.00 60 1018.4
20260506143331 51 341 0.0 2.0 0.00 0.09 0.00 60 1018.3
20260506142830 51 22 5.0 6.0 0.00 0.09 0.00 61 1018.3
20260506142329 51 282 0.0 0.0 0.00 0.09 0.00 61 1018.4
20260506141828 51 282 0.0 4.0 0.00 0.09 0.00 61 1018.4
20260506141327 51 36 0.0 3.0 0.00 0.09 0.00 63 1018.2
20260506140826 51 360 0.0 7.0 0.00 0.09 0.00 62 1018.2
20260506140325 51 358 2.0 3.0 0.00 0.09 0.00 64 1018.1
20260506135824 50 15 0.0 4.0 0.00 0.15 0.00 63 1018.0
20260506135323 50 295 0.0 5.0 0.00 0.15 0.00 64 1017.8
20260506134822 50 9 1.0 2.0 0.00 0.15 0.00 66 1017.8
20260506134321 50 35 0.0 5.0 0.00 0.15 0.00 66 1017.5
20260506133820 50 358 1.0 5.0 0.00 0.15 0.00 64 1017.6
20260506133319 50 358 0.0 3.0 0.00 0.15 0.00 67 1017.6
20260506132818 49 348 0.0 4.0 0.00 0.15 0.00 70 1017.5
20260506132317 49 282 0.0 1.0 0.00 0.15 0.00 69 1017.4
20260506131816 49 344 3.0 5.0 0.00 0.15 0.00 73 1017.4
20260506131315 49 22 0.0 0.0 0.00 0.15 0.00 73 1017.2
20260506130814 48 324 0.0 5.0 0.00 0.15 0.00 76 1017.2
20260506130313 48 326 0.0 3.0 0.00 0.15 0.00 76 1017.1
20260506125812 47 348 0.0 3.0 0.00 0.17 0.00 79 1017.1
20260506125311 47 322 0.0 4.0 0.00 0.17 0.00 81 1017.1
20260506124811 47 281 0.0 0.0 0.00 0.17 0.00 84 1017.0
20260506124309 46 307 0.0 1.0 0.00 0.17 0.00 85 1016.8
20260506123809 46 296 0.0 1.0 0.00 0.17 0.00 86 1016.8
20260506123308 46 327 1.0 2.0 0.00 0.17 0.00 87 1016.7
20260506122806 46 302 0.0 1.0 0.00 0.17 0.00 88 1016.6
20260506122306 46 309 1.0 2.0 0.00 0.17 0.00 90 1016.5
20260506121804 46 329 1.0 2.0 0.00 0.17 0.00 92 1016.4
20260506121303 45 205 0.0 0.0 0.00 0.17 0.00 93 1016.3
20260506120802 46 205 0.0 0.0 0.00 0.17 0.00 93 1016.3
20260506120301 45 205 0.0 0.0 0.00 0.17 0.00 93 1016.1
20260506115800 46 205 0.0 0.0 0.00 0.28 0.00 93 1015.9
20260506115300 45 205 0.0 0.0 0.00 0.28 0.00 93 1015.9
20260506114758 45 205 0.0 0.0 0.00 0.28 0.00 93 1015.8
20260506114258 45 205 0.0 0.0 0.00 0.28 0.00 92 1015.7
20260506113756 45 205 0.0 0.0 0.00 0.28 0.00 92 1015.8
20260506113255 45 205 0.0 0.0 0.00 0.28 0.00 92 1015.6
20260506112754 45 205 0.0 0.0 0.00 0.28 0.00 92 1015.4
20260506112253 45 205 0.0 2.0 0.00 0.28 0.00 92 1015.4
20260506111752 45 338 0.0 3.0 0.00 0.28 0.00 92 1015.5
20260506111251 46 21 2.0 3.0 0.00 0.28 0.00 92 1015.7
20260506110750 45 234 2.0 3.0 0.00 0.28 0.00 92 1015.7
20260506110249 45 223 0.0 2.0 0.00 0.28 0.00 92 1016.0
20260506105748 45 277 1.0 2.0 0.00 0.29 0.00 92 1016.1
20260506105247 45 275 0.0 3.0 0.00 0.29 0.00 92 1016.2
20260506104746 45 195 1.0 2.0 0.00 0.29 0.00 92 1016.2
20260506104245 45 223 0.0 3.0 0.00 0.29 0.00 93 1016.3
20260506103744 45 262 2.0 4.0 0.00 0.29 0.00 93 1016.1
20260506103243 45 216 2.0 3.0 0.00 0.29 0.00 93 1016.2
20260506102742 45 307 1.0 3.0 0.00 0.29 0.00 93 1016.4
20260506102241 45 288 1.0 2.0 0.00 0.29 0.00 94 1016.2
20260506101740 45 225 1.0 3.0 0.00 0.29 0.00 94 1016.3
20260506101239 45 261 3.0 3.0 0.00 0.29 0.00 94 1016.1
20260506100738 45 229 0.0 3.0 0.00 0.29 0.00 94 1015.8
20260506100237 45 253 0.0 3.0 0.00 0.29 0.00 93 1015.6
20260506095736 46 336 2.0 3.0 0.00 0.30 0.00 93 1015.4
20260506095235 46 334 1.0 2.0 0.00 0.30 0.00 92 1015.2
20260506094734 46 320 0.0 1.0 0.00 0.30 0.00 91 1015.2
20260506094233 46 306 1.0 2.0 0.00 0.30 0.00 90 1015.0
20260506093732 46 248 0.0 0.0 0.00 0.30 0.00 90 1015.0
20260506093231 46 248 0.0 0.0 0.00 0.30 0.00 89 1014.9
20260506092730 45 248 0.0 0.0 0.00 0.30 0.00 89 1015.0
20260506092229 45 248 0.0 0.0 0.00 0.30 0.00 89 1015.0
20260506091728 46 248 0.0 0.0 0.00 0.30 0.00 89 1014.9
20260506091227 46 248 0.0 0.0 0.00 0.30 0.00 89 1014.9
20260506090726 46 248 0.0 0.0 0.00 0.30 0.00 89 1014.8
20260506090225 45 248 0.0 0.0 0.00 0.30 0.00 89 1014.8
20260506085724 45 248 0.0 0.0 0.00 0.30 0.00 89 1014.9
20260506085223 46 248 0.0 0.0 0.00 0.30 0.00 89 1015.0
20260506084722 46 248 0.0 0.0 0.00 0.30 0.00 89 1015.0
20260506084221 46 248 0.0 0.0 0.00 0.30 0.00 89 1014.8
20260506083720 46 248 0.0 0.0 0.00 0.30 0.00 89 1014.9
20260506083219 46 248 0.0 0.0 0.00 0.30 0.00 89 1014.9
20260506082718 46 248 0.0 1.0 0.00 0.30 0.00 89 1015.2
20260506082217 46 115 0.0 0.0 0.00 0.30 0.00 88 1014.8
20260506081716 46 115 0.0 0.0 0.00 0.30 0.00 88 1014.7
20260506081215 46 115 0.0 0.0 0.00 0.30 0.00 87 1014.5
20260506080714 46 115 0.0 0.0 0.00 0.30 0.00 87 1014.4
20260506080213 46 115 0.0 0.0 0.00 0.30 0.00 87 1014.3
20260506073207 46 115 0.0 1.0 0.00 0.30 0.00 85 1013.9
20260506072706 46 139 0.0 1.0 0.00 0.30 0.00 85 1013.8
20260506072205 46 104 0.0 0.0 0.00 0.30 0.00 85 1013.7
20260506071704 46 104 0.0 1.0 0.00 0.30 0.00 85 1013.7
20260506071203 46 222 1.0 2.0 0.00 0.30 0.00 85 1013.8
20260506070702 46 161 0.0 2.0 0.00 0.30 0.00 84 1014.0
20260506070201 46 108 0.0 0.0 0.00 0.30 0.00 83 1014.1
20260506062153 46 344 0.0 3.0 0.00 0.37 0.00 83 1015.0
20260506061652 46 320 0.0 5.0 0.00 0.37 0.00 82 1015.0
20260506061151 46 11 2.0 4.0 0.00 0.37 0.00 82 1015.2
20260506060650 46 345 1.0 5.0 0.00 0.37 0.00 82 1015.2
20260506060149 46 323 2.0 4.0 0.00 0.37 0.00 81 1015.2
20260506051139 47 334 0.0 4.0 0.02 0.54 0.00 76 1014.8
20260506050638 47 42 2.0 5.0 0.02 0.54 0.00 75 1014.8
20260506050137 47 338 1.0 7.0 0.02 0.54 0.00 76 1014.7
20260506045135 47 331 1.0 13.0 0.02 0.54 0.54 74 1014.6
20260506044634 47 316 4.0 8.0 0.02 0.54 0.54 76 1014.5
20260506044133 47 15 1.0 8.0 0.02 0.54 0.54 75 1014.5
20260506043632 48 8 0.0 3.0 0.02 0.54 0.54 75 1014.4
20260506043131 47 358 4.0 7.0 0.02 0.54 0.54 74 1014.4
20260506042630 48 343 3.0 6.0 0.02 0.54 0.54 74 1014.5
20260506042129 48 351 4.0 19.0 0.02 0.54 0.54 70 1014.6
20260506041628 49 323 5.0 15.0 0.01 0.53 0.53 67 1014.5
20260506041127 49 324 4.0 7.0 0.00 0.52 0.52 72 1014.3
20260506040626 49 333 1.0 11.0 0.00 0.52 0.52 69 1014.3
20260506040125 50 267 0.0 1.0 0.00 0.52 0.52 78 1013.9
20260506035624 50 327 0.0 0.0 0.00 0.61 0.61 77 1013.7
20260506035123 50 327 0.0 0.0 0.00 0.61 0.61 77 1013.7
20260506034622 50 327 0.0 0.0 0.00 0.61 0.61 78 1013.7
20260506034121 50 327 0.0 0.0 0.00 0.61 0.61 78 1013.5
20260506033620 50 327 0.0 0.0 0.00 0.61 0.61 79 1013.3
20260506033119 50 327 0.0 0.0 0.00 0.61 0.61 80 1013.1
20260506032618 50 327 0.0 0.0 0.00 0.61 0.61 80 1013.1
20260506032117 50 327 0.0 0.0 0.00 0.61 0.61 81 1013.0
20260506031616 50 327 0.0 2.0 0.00 0.61 0.61 81 1012.9
20260506031115 50 303 0.0 0.0 0.00 0.61 0.61 82 1012.9
20260506030614 50 303 0.0 0.0 0.00 0.61 0.61 82 1012.9
20260506030113 50 303 0.0 1.0 0.00 0.61 0.61 82 1012.8
20260506025612 50 334 0.0 5.0 0.00 0.91 0.61 83 1012.6
20260506025111 49 1 2.0 5.0 0.00 0.91 0.61 84 1012.5
20260506024610 49 45 2.0 5.0 0.00 0.91 0.61 88 1012.4
20260506024109 50 16 1.0 1.0 0.00 0.91 0.61 93 1012.4
20260506023608 50 16 0.0 0.0 0.00 0.91 0.61 94 1012.5
20260506023107 50 16 0.0 0.0 0.00 0.91 0.61 94 1012.2
20260506022606 50 16 0.0 0.0 0.00 0.91 0.61 94 1012.2
20260506022105 50 16 0.0 0.0 0.00 0.91 0.61 94 1012.2
20260506021604 50 16 0.0 0.0 0.00 0.91 0.61 94 1012.1
20260506021103 50 16 0.0 0.0 0.00 0.91 0.61 93 1012.0
20260506020602 50 16 0.0 0.0 0.00 0.91 0.61 93 1011.8
20260506015600 50 16 0.0 0.0 0.00 0.91 0.61 90 1011.6
20260506015059 50 16 0.0 0.0 0.00 0.91 0.61 89 1011.6
20260506014558 50 16 0.0 0.0 0.00 0.91 0.61 89 1011.6
20260506014057 51 16 0.0 0.0 0.00 0.91 0.61 88 1011.5
20260506013556 51 16 0.0 0.0 0.00 0.91 0.61 88 1011.5
20260506013055 51 16 0.0 0.0 0.00 0.91 0.61 88 1011.5
20260506012554 51 16 0.0 0.0 0.00 0.91 0.61 87 1011.5
20260506012053 51 16 0.0 0.0 0.00 0.91 0.61 87 1011.5
20260506011552 51 16 0.0 0.0 0.00 0.91 0.61 86 1011.4
20260506011051 52 16 0.0 0.0 0.00 0.91 0.61 86 1011.5
20260506010550 52 16 0.0 0.0 0.00 0.91 0.61 86 1011.4
20260506010049 52 16 0.0 0.0 0.00 0.91 0.61 86 1011.4
20260506005548 52 16 0.0 0.0 0.00 0.91 0.61 85 1011.3
20260506005047 52 16 0.0 0.0 0.00 0.91 0.61 85 1011.4
20260506004546 52 16 0.0 0.0 0.00 0.91 0.61 85 1011.3
20260506004045 52 16 0.0 0.0 0.00 0.91 0.61 85 1011.2
20260506003544 52 16 0.0 0.0 0.00 0.91 0.61 85 1011.2
20260506003043 52 16 0.0 0.0 0.00 0.91 0.61 84 1011.4
20260506002542 52 16 0.0 0.0 0.00 0.91 0.61 84 1011.3
20260506002041 52 16 0.0 0.0 0.00 0.91 0.61 84 1011.3
20260506001540 52 16 0.0 0.0 0.00 0.91 0.61 84 1011.1
20260506001039 52 16 0.0 0.0 0.00 0.91 0.61 83 1010.9
20260506000538 52 16 0.0 0.0 0.00 0.91 0.61 83 1011.0
20260506000038 52 16 0.0 0.0 0.00 0.91 0.61 82 1011.0
20260505235536 52 16 0.0 0.0 0.00 0.91 0.61 83 1011.1
20260505235035 52 16 0.0 0.0 0.00 0.91 0.61 83 1011.0
20260505234534 52 16 0.0 0.0 0.00 0.91 0.61 83 1010.9
20260505234033 52 16 0.0 0.0 0.00 0.91 0.61 83 1011.0
20260505233533 52 16 0.0 0.0 0.00 0.91 0.61 84 1011.2
20260505233031 52 16 0.0 0.0 0.00 0.91 0.61 84 1011.1
20260505232530 52 16 0.0 0.0 0.00 0.91 0.61 84 1011.0
20260505232029 52 16 0.0 0.0 0.00 0.91 0.61 83 1011.1
20260505231528 52 16 0.0 0.0 0.00 0.91 0.61 83 1011.3
20260505231027 52 16 0.0 0.0 0.00 0.91 0.61 84 1011.3
20260505230526 52 16 0.0 0.0 0.00 0.91 0.61 84 1011.3
20260505230025 52 16 0.0 0.0 0.00 0.91 0.61 84 1011.4
20260505225524 51 16 0.0 0.0 0.00 0.91 0.61 84 1011.3
20260505225024 52 16 0.0 0.0 0.00 0.91 0.61 85 1011.1
20260505224522 51 16 0.0 0.0 0.00 0.91 0.61 85 1010.9
20260505224021 51 16 0.0 0.0 0.00 0.91 0.61 85 1011.0
20260505223520 51 16 0.0 0.0 0.00 0.91 0.61 85 1011.1
20260505223019 51 16 0.0 0.0 0.00 0.91 0.61 85 1011.1
20260505222518 51 16 0.0 0.0 0.00 0.91 0.61 85 1011.2
20260505222017 51 16 0.0 0.0 0.00 0.91 0.61 85 1011.2
20260505221516 51 16 0.0 0.0 0.00 0.91 0.61 85 1011.2
20260505221015 51 16 0.0 0.0 0.00 0.91 0.61 84 1011.2
20260505220514 50 16 0.0 0.0 0.00 0.91 0.61 85 1011.2
20260505220013 50 16 0.0 0.0 0.00 0.91 0.61 85 1011.1
20260505215512 50 16 0.0 0.0 0.00 0.91 0.61 85 1011.2
20260505215011 50 16 0.0 0.0 0.00 0.91 0.61 85 1011.1
20260505214510 50 16 0.0 0.0 0.00 0.91 0.61 86 1011.2
20260505214009 50 16 0.0 0.0 0.00 0.91 0.61 86 1011.2
20260505213509 50 16 0.0 0.0 0.00 0.91 0.61 86 1011.2
20260505213008 50 16 0.0 0.0 0.00 0.91 0.61 86 1011.3
20260505212506 50 16 0.0 0.0 0.00 0.91 0.61 86 1011.3
20260505212005 49 16 0.0 0.0 0.00 0.91 0.61 87 1011.4
20260505211504 49 16 0.0 0.0 0.00 0.91 0.61 87 1011.4
20260505211003 49 16 0.0 0.0 0.00 0.91 0.61 87 1011.3
20260505210503 49 16 0.0 0.0 0.00 0.91 0.61 88 1011.3
20260505210001 49 16 0.0 2.0 0.00 0.91 0.61 87 1011.4
20260505205501 49 8 0.0 2.0 0.00 0.91 0.61 88 1011.5
20260505204959 49 14 0.0 0.0 0.00 0.91 0.61 88 1011.6
20260505204458 49 43 0.0 0.0 0.00 0.91 0.61 89 1011.7
20260505203957 49 43 0.0 0.0 0.00 0.91 0.61 90 1011.8
20260505203456 49 43 0.0 0.0 0.00 0.91 0.61 91 1011.6
20260505202955 49 43 0.0 0.0 0.00 0.91 0.61 91 1011.5
20260505202454 49 43 0.0 0.0 0.00 0.91 0.61 91 1011.6
20260505201953 49 43 0.0 0.0 0.00 0.91 0.61 91 1011.5
20260505201452 49 43 0.0 0.0 0.00 0.91 0.61 91 1011.6
20260505200951 48 43 0.0 0.0 0.00 0.91 0.61 90 1011.7
20260505200451 48 43 0.0 0.0 0.00 0.91 0.61 89 1011.7
20260505195949 48 43 0.0 0.0 0.00 0.91 0.61 88 1011.7
20260505195448 48 43 0.0 0.0 0.00 0.91 0.61 88 1011.7
20260505194947 48 43 0.0 2.0 0.00 0.91 0.61 89 1011.7
20260505194446 48 43 0.0 6.0 0.00 0.91 0.61 90 1011.6
20260505193946 48 29 0.0 0.0 0.00 0.91 0.61 90 1011.6
20260505193445 48 50 2.0 3.0 0.00 0.91 0.61 90 1011.7
20260505192943 48 9 0.0 3.0 0.00 0.91 0.61 91 1011.6
20260505192442 48 37 1.0 4.0 0.01 0.91 0.61 91 1011.6
20260505191941 48 90 0.0 2.0 0.01 0.91 0.61 92 1011.5
20260505191441 48 90 2.0 3.0 0.01 0.91 0.61 92 1011.5
20260505190939 48 80 2.0 3.0 0.01 0.91 0.61 92 1011.6
20260505190438 48 67 1.0 1.0 0.01 0.91 0.61 93 1011.7
20260505185937 48 163 0.0 3.0 0.02 0.91 0.61 94 1011.7
20260505185437 48 95 0.0 1.0 0.03 0.91 0.61 95 1011.8
20260505184936 48 91 4.0 4.0 0.03 0.91 0.61 95 1011.8
20260505184434 48 112 0.0 1.0 0.04 0.91 0.61 95 1011.6
20260505183933 48 153 0.0 4.0 0.04 0.91 0.61 95 1011.6
20260505183432 48 151 1.0 4.0 0.04 0.91 0.61 95 1011.8
20260505182931 47 149 1.0 5.0 0.04 0.91 0.61 95 1011.9
20260505182430 47 80 4.0 5.0 0.03 0.90 0.60 95 1012.1
20260505181929 47 122 1.0 5.0 0.03 0.90 0.60 95 1012.4